EW9559 Weather Reports


time (UTC)temp
F
wind
direction
speed
knots
gust
knots
rain 1hr
in
rain 24hr
in
rain mn
in
humidity
%
barometer
mb
20260503193106 83 4 0.0 2.6 0.00 0.00 0.00 37 1016.5
20260503191530 82 330 0.0 3.5 0.00 0.00 0.00 39 1016.7
20260503190029 81 341 0.0 2.6 0.00 0.00 0.00 41 1016.8
20260503184530 81 316 0.0 2.6 0.00 0.00 0.00 42 1017.0
20260503183103 81 316 0.0 2.6 0.00 0.00 0.00 41 1017.2
20260503180027 81 291 0.0 0.0 0.00 0.00 0.00 42 1017.4
20260503174531 80 265 0.0 0.0 0.00 0.00 0.00 43 1017.5
20260503173031 79 290 0.0 0.0 0.00 0.00 0.00 47 1017.6
20260503171529 74 302 0.0 1.7 0.00 0.00 0.00 51 1017.7
20260503160107 69 292 0.0 0.0 0.00 0.00 0.00 54 1018.0
20260503081604 57 247 0.0 1.7 0.00 0.00 0.00 76 1017.6
20260503054533 61 247 0.0 1.7 0.00 0.00 0.00 69 1017.5
20260503053028 61 241 0.0 1.7 0.00 0.00 0.00 68 1017.6
20260503051530 62 225 0.0 1.7 0.00 0.00 0.00 68 1017.4
20260503050033 62 225 0.0 0.9 0.00 0.00 0.00 67 1017.3
20260503044530 64 243 0.0 1.7 0.00 0.00 0.00 63 1017.3
20260503043107 63 261 0.0 1.7 0.00 0.00 0.00 63 1017.2
20260503041529 63 274 0.0 1.7 0.00 0.00 0.00 65 1017.0
20260503040038 63 275 0.0 0.9 0.00 0.00 0.00 65 1016.7
20260503034528 65 247 0.0 0.9 0.00 0.00 0.00 63 1016.4
20260503031530 67 247 0.0 1.7 0.00 0.00 0.00 62 1015.7
20260503030032 68 239 0.0 1.7 0.00 0.00 0.00 63 1015.4
20260503024528 69 225 0.0 0.9 0.00 0.00 0.00 61 1015.3
20260503020106 73 202 0.0 0.0 0.00 0.00 0.00 57 1015.0
20260503014530 75 202 0.0 0.0 0.00 0.00 0.00 52 1015.0
20260503011532 77 202 0.0 0.0 0.00 0.00 0.00 45 1015.0
20260503010033 78 202 0.0 0.9 0.00 0.00 0.00 44 1015.0
20260503004530 80 202 0.0 0.9 0.00 0.00 0.00 41 1015.0
20260503003029 82 202 0.0 0.9 0.00 0.00 0.00 39 1015.0
20260503001608 82 202 0.0 1.7 0.00 0.00 0.00 37 1015.1
20260503000038 84 208 0.0 1.7 0.00 0.00 0.00 37 1015.2
20260502234532 83 203 0.0 2.6 0.00 0.00 0.00 36 1015.4
20260502233029 85 203 0.0 1.7 0.00 0.00 0.00 36 1015.6
20260502230038 83 229 0.0 1.7 0.00 0.00 0.00 38 1015.9
20260502223107 84 205 0.0 1.7 0.00 0.00 0.00 37 1016.4
20260502221530 82 187 0.0 4.3 0.00 0.00 0.00 39 1016.6
20260502220033 82 196 0.0 1.7 0.00 0.00 0.00 42 1016.7
20260502214531 79 211 0.0 0.9 0.00 0.00 0.00 48 1016.8
20260502213146 76 218 0.0 1.7 0.00 0.00 0.00 54 1017.1
20260502210104 72 328 0.0 3.5 0.00 0.00 0.00 57 1017.4
20260502204530 75 327 0.0 1.7 0.00 0.00 0.00 53 1017.4
20260502203026 75 204 0.0 0.9 0.00 0.00 0.00 56 1017.6
20260502201530 73 199 0.0 1.7 0.00 0.00 0.00 65 1017.9
20260502194533 62 292 0.0 0.0 0.00 0.00 0.00 76 1018.1